Temp
81 81 81 81 82 81 81 82 81 80 80 79 81 82 82 82 83 82 81 83 82 83 84 82 82 84 86 87 86 86 85 84 82 87 87 88 85 86 89 90 91 91 92
82 80 80 80 80 81 81 81 80 80 81 81 81 80 81 81 82 82 82 84 82 82 83 82 83 86 82 81 85 83 83 83 82 79 84 86 84 86 85 85 89 93 90
80 80 79 79 79 79 80 79 80 80 80 81 80 79 80 81 81 82 82 82 83 83 83 83 82 83 80 84 80 79 83 85 80 80 82 84 84 85 84 85 84 85 91
79 80 79 79 80 80 80 79 79 79 79 79 80 80 81 82 82 81 80 80 80 81 80 83 83 82 81 82 81 80 83 78 79 78 80 83 84 84 84 83 84 87 86
76 79 79 78 77 79 79 79 78 78 79 79 79 78 79 79 78 77 79 80 80 80 81 80 81 72 69 69 74 79 78 78 77 77 76 80 78 82 78 84 82 84 85
77 77 78 74 73 76 73 76 76 75 74 77 77 70 70 73 64 65 67 77 78 79 79 81 76 72 71 67 66 67 70 76 76 75 76 74 77 80 83 81 81 81 81
74 74 73 72 74 72 71 72 73 71 70 73 70 68 68 67 62 62 65 76 77 76 76 79 75 72 70 71 67 66 66 65 67 77 77 78 76 77 75 76 78 79 80
68 69 70 69 69 71 70 70 70 70 69 68 66 65 64 62 59 60 64 74 76 73 69 71 71 65 63 67 70 69 69 72 74 81 76 73 72 73 75 79 77 77 76
68 70 69 70 69 68 68 69 69 70 68 64 63 64 64 63 57 59 66 70 69 65 64 65 68 66 60 60 68 68 69 70 63 61 61 61 60 60 65 81 81 80 79
67 67 68 68 69 69 69 68 67 67 64 62 62 65 62 65 56 57 67 77 73 73 70 68 59 64 57 58 73 74 72 72 74 73 73 69 68 67 64 70 77 78 78
65 66 65 64 66 67 67 67 65 63 62 61 62 63 63 63 62 55 57 74 75 74 74 73 74 56 54 56 58 73 71 72 67 72 73 73 73 72 72 70 68 72 75
63 64 64 63 62 63 64 66 63 61 60 59 59 60 59 60 56 54 54 56 62 72 73 73 70 53 53 55 63 55 57 65 74 73 72 70 70 70 69 68 65 65 65
60 59 59 61 60 59 61 63 63 63 61 61 64 61 59 61 61 55 54 56 57 70 71 62 55 52 52 58 56 56 60 68 70 62 69 67 66 67 66 65 63 62 62
56 56 58 55 56 57 55 58 60 61 61 60 60 61 60 61 62 63 64 66 60 67 62 64 60 60 56 62 64 67 67 66 65 66 66 65 66 66 64 66 65 66 66
61 60 58 57 54 52 51 52 54 51 50 57 58 62 63 61 59 52 55 60 59 53 63 68 68 66 62 59 59 65 62 65 66 66 65 63 63 63 63 64 63 65 63
63 64 64 62 59 58 57 56 48 48 47 45 46 54 57 50 46 45 43 44 45 47 62 67 66 67 66 65 65 62 61 62 57 60 58 63 63 59 62 62 62 62 61
65 65 63 63 66 65 65 66 66 58 48 46 45 46 46 48 45 44 43 43 45 48 65 66 66 66 65 64 64 65 63 63 60 62 63 62 61 61 63 60 61 62 60
64 54 67 67 67 65 65 66 67 66 66 66 49 50 45 45 44 43 43 46 64 59 67 68 68 67 66 66 65 65 62 61 61 61 61 61 62 62 61 61 61 60 61
67 67 67 67 67 65 68 68 67 66 65 67 67 54 50 44 43 43 43 62 65 67 67 67 67 66 65 64 63 62 61 61 60 61 61 61 62 62 60 62 57 49 53
67 58 60 67 68 67 67 67 67 66 65 66 66 67 66 56 63 64 63 64 64 66 66 66 65 66 64 63 61 61 60 58 59 60 60 61 60 61 60 59 61 61 60
68 68 60 68 68 67 67 67 67 66 66 66 68 67 50 63 66 66 66 66 65 66 65 66 65 65 64 63 62 61 61 61 60 60 59 59 59 59 60 60 61 60 60
68 68 67 67 68 68 68 68 67 67 66 66 68 67 45 61 66 66 67 68 68 67 68 66 66 66 65 63 62 62 61 60 59 59 59 59 59 59 59 59 60 59 59
66 66 67 67 67 61 67 68 68 68 67 67 68 68 67 66 67 66 67 69 68 68 68 67 67 66 65 65 64 63 62 61 60 60 59 58 57 57 58 57 57 59 59
63 63 63 64 65 65 67 66 67 58 63 66 67 67 67 66 63 64 64 64 68 67 67 67 67 67 64 64 64 64 64 63 62 60 59 58 57 52 57 57 57 56 59
63 63 62 62 62 62 63 65 65 65 65 65 65 66 67 66 65 63 58 61 65 65 65 66 67 66 64 63 64 63 50 43 56 50 59 57 56 54 57 58 57 57 55
60 60 61 62 61 61 61 61 61 61 61 62 63 63 63 63 64 63 61 62 60 61 61 62 66 66 65 64 63 51 35 37 48 40 58 58 57 57 57 56 54 56 55
MSLP
1016.84 1017.37 1017.86 1018.25 1018.62 1018.88 1019.10 1019.14 1019.20 1019.36 1019.40 1019.54 1019.63 1019.68 1019.75 1019.80 1019.83 1020.05 1020.14 1020.17 1020.19 1020.20 1020.32 1020.45 1020.42 1020.41 1020.15 1020.09 1020.16 1020.12 1019.95 1019.82 1019.25 1018.75 1019.14 1018.88 1018.90 1018.63 1018.29 1018.21 1017.94 1017.84 1017.60
1016.43 1017.00 1017.38 1017.86 1018.31 1018.53 1018.73 1018.98 1019.11 1019.09 1019.09 1019.30 1019.38 1019.54 1019.66 1019.80 1019.84 1019.80 1019.76 1019.77 1019.94 1020.07 1020.07 1020.16 1020.05 1020.02 1020.04 1020.16 1019.99 1020.00 1019.88 1019.88 1019.75 1019.30 1019.05 1018.86 1018.90 1018.60 1018.42 1018.30 1017.96 1017.65 1017.70
1016.22 1016.66 1017.03 1017.41 1017.86 1018.24 1018.54 1018.82 1018.97 1019.00 1019.00 1019.01 1019.28 1019.47 1019.53 1019.63 1019.61 1019.56 1019.56 1019.50 1019.47 1019.59 1019.73 1019.83 1019.79 1019.90 1019.89 1019.69 1019.92 1019.92 1019.81 1019.69 1019.83 1019.59 1019.13 1019.15 1018.91 1018.68 1018.48 1018.24 1018.19 1018.03 1017.46
1015.80 1016.16 1016.60 1016.86 1017.22 1017.71 1018.26 1018.58 1018.78 1018.98 1019.05 1019.02 1019.12 1019.29 1019.44 1019.60 1019.54 1019.38 1019.32 1019.19 1019.31 1019.44 1019.44 1019.44 1019.52 1019.70 1019.80 1019.74 1019.77 1019.80 1019.64 1019.74 1019.68 1019.52 1019.21 1018.96 1018.91 1018.88 1018.75 1018.38 1017.90 1017.72 1017.53
1015.30 1015.68 1015.89 1016.36 1016.83 1017.32 1017.79 1018.21 1018.46 1018.64 1018.94 1019.06 1019.13 1019.29 1019.47 1019.74 1019.91 1019.78 1019.61 1019.44 1019.30 1019.20 1019.26 1019.31 1019.48 1020.02 1020.13 1020.08 1020.21 1019.93 1019.84 1019.72 1019.51 1019.24 1019.09 1018.94 1018.96 1018.68 1018.72 1018.50 1018.18 1017.86 1017.94
1015.30 1015.30 1015.51 1016.30 1016.65 1017.15 1017.58 1017.86 1018.12 1018.46 1018.79 1019.00 1019.18 1019.45 1019.88 1020.11 1020.64 1020.39 1020.12 1019.81 1019.52 1019.34 1019.09 1019.20 1019.81 1020.06 1020.17 1020.13 1020.18 1020.06 1020.16 1019.74 1019.41 1019.24 1019.02 1019.04 1018.94 1018.86 1018.59 1018.73 1018.52 1018.11 1017.77
1015.30 1015.54 1015.92 1016.08 1016.50 1017.05 1017.40 1017.76 1018.05 1018.25 1018.78 1018.70 1019.20 1019.60 1019.98 1020.44 1020.58 1020.24 1020.12 1019.76 1019.52 1019.40 1019.40 1019.33 1019.87 1020.02 1020.15 1020.27 1020.34 1020.32 1020.34 1020.33 1019.89 1019.30 1019.02 1019.28 1019.27 1019.23 1019.44 1018.90 1018.79 1018.71 1018.59
1015.42 1015.53 1015.94 1016.22 1016.43 1016.76 1017.25 1017.63 1017.91 1017.90 1018.40 1018.53 1019.20 1019.68 1020.08 1020.34 1020.49 1020.28 1019.99 1019.86 1019.70 1019.76 1019.80 1019.81 1020.16 1020.44 1020.19 1020.28 1020.40 1020.29 1020.38 1020.65 1020.44 1019.48 1019.67 1020.01 1019.94 1019.86 1019.52 1019.03 1018.90 1019.08 1019.50
1015.50 1015.92 1016.15 1016.18 1016.56 1016.81 1016.99 1017.33 1017.60 1017.55 1018.18 1018.93 1019.55 1020.03 1020.39 1020.56 1020.60 1020.13 1020.10 1020.02 1020.22 1020.18 1020.18 1020.24 1020.26 1020.55 1020.52 1020.47 1020.34 1020.32 1020.41 1020.61 1020.90 1020.90 1021.11 1021.22 1021.16 1020.61 1019.94 1018.96 1018.62 1018.46 1018.38
1015.52 1015.74 1015.86 1015.60 1016.07 1016.60 1016.90 1017.19 1017.39 1017.74 1018.63 1019.46 1019.95 1020.24 1020.47 1020.82 1020.47 1020.36 1020.08 1020.06 1019.97 1020.18 1020.48 1020.72 1020.92 1020.92 1020.93 1020.54 1020.44 1020.06 1020.20 1020.33 1020.21 1020.50 1020.63 1020.45 1020.46 1020.70 1020.54 1020.10 1019.61 1018.88 1019.07
1015.82 1016.04 1016.36 1016.44 1016.27 1016.71 1016.81 1017.12 1017.54 1018.15 1018.70 1019.85 1020.50 1020.54 1020.52 1020.64 1020.72 1020.46 1020.38 1020.32 1019.82 1020.12 1020.19 1020.49 1021.00 1021.29 1021.14 1020.99 1020.74 1020.57 1020.28 1020.55 1020.80 1020.78 1020.79 1020.77 1020.72 1020.59 1020.75 1021.13 1020.92 1020.44 1020.04
1016.51 1016.49 1016.19 1017.00 1016.92 1017.15 1017.53 1017.54 1017.72 1018.58 1019.25 1020.13 1020.50 1020.69 1020.75 1020.69 1020.69 1020.86 1020.97 1020.64 1020.70 1020.39 1020.47 1020.83 1021.25 1021.44 1021.23 1021.00 1021.02 1021.02 1020.91 1020.88 1020.84 1020.66 1020.71 1021.04 1021.06 1021.05 1021.44 1021.61 1022.09 1022.06 1022.06
1017.30 1017.48 1017.66 1017.50 1017.84 1017.90 1018.04 1018.19 1018.37 1018.87 1019.46 1019.99 1020.30 1020.85 1020.89 1021.00 1021.28 1021.40 1021.36 1021.08 1020.86 1020.86 1021.06 1021.30 1021.53 1021.81 1021.49 1021.53 1021.58 1021.52 1021.24 1021.24 1021.01 1021.50 1021.34 1021.76 1022.22 1022.32 1022.22 1022.35 1022.74 1022.90 1023.06
1017.93 1018.31 1018.26 1018.34 1018.29 1019.05 1019.02 1019.77 1019.31 1019.66 1019.97 1020.20 1020.54 1020.81 1020.97 1021.17 1021.42 1021.47 1021.50 1021.41 1021.16 1021.02 1021.32 1021.64 1021.70 1021.77 1021.62 1021.74 1021.81 1021.48 1021.44 1021.55 1021.50 1021.53 1021.79 1022.34 1022.58 1022.75 1022.72 1022.84 1022.51 1022.75 1022.47
1018.32 1018.57 1018.81 1018.86 1019.10 1019.85 1020.82 1020.95 1020.47 1020.96 1020.80 1020.72 1020.63 1020.62 1020.90 1021.40 1021.50 1021.79 1021.64 1021.95 1022.10 1021.99 1021.62 1021.58 1021.36 1021.60 1021.83 1021.85 1021.85 1021.90 1021.94 1021.86 1021.83 1021.95 1022.17 1022.48 1022.73 1022.81 1022.79 1022.96 1023.08 1022.84 1022.65
1018.58 1018.95 1019.06 1019.47 1020.04 1020.38 1020.56 1020.66 1020.78 1020.99 1021.15 1020.88 1020.98 1021.07 1021.53 1021.76 1021.88 1022.04 1022.06 1022.20 1022.35 1022.20 1021.86 1021.19 1021.08 1021.01 1021.38 1021.58 1021.58 1021.92 1022.39 1022.13 1022.86 1022.57 1022.74 1022.92 1022.78 1022.86 1022.78 1022.84 1023.35 1023.06 1023.14
1018.82 1019.14 1019.43 1019.47 1019.60 1019.86 1020.08 1020.14 1020.22 1020.73 1020.76 1020.99 1021.53 1021.62 1021.98 1022.06 1022.10 1022.22 1022.30 1022.18 1021.98 1022.30 1021.62 1020.94 1020.82 1020.92 1021.17 1021.33 1021.59 1021.55 1021.76 1022.38 1022.90 1022.73 1022.69 1022.86 1023.30 1023.35 1023.09 1023.09 1023.07 1023.30 1023.13
1019.18 1019.52 1019.27 1019.42 1019.72 1019.90 1020.06 1020.22 1020.42 1020.44 1020.55 1021.11 1021.51 1021.76 1022.02 1021.95 1022.05 1022.32 1022.48 1022.19 1021.31 1021.54 1020.45 1020.13 1020.32 1020.52 1020.84 1021.32 1021.77 1021.79 1022.30 1022.80 1022.77 1022.79 1022.86 1022.93 1023.19 1023.18 1023.09 1023.18 1023.45 1023.61 1023.70
1019.19 1019.24 1019.44 1019.61 1019.60 1019.86 1019.69 1019.77 1019.98 1020.23 1020.32 1020.28 1020.46 1020.98 1021.33 1021.96 1022.02 1022.17 1022.28 1021.44 1020.70 1020.40 1020.20 1020.20 1020.32 1020.60 1020.80 1021.22 1021.77 1022.16 1022.52 1022.84 1023.12 1023.16 1023.36 1023.35 1023.42 1023.18 1023.44 1023.60 1023.87 1024.41 1024.25
1019.28 1019.76 1019.78 1019.53 1019.59 1019.76 1019.85 1019.85 1019.96 1020.00 1020.02 1020.01 1019.94 1019.94 1020.60 1021.39 1021.13 1020.95 1020.95 1020.83 1020.40 1020.22 1019.96 1019.98 1020.31 1020.60 1020.85 1021.40 1021.94 1022.30 1022.67 1023.03 1023.11 1023.32 1023.59 1023.80 1023.74 1023.72 1023.37 1023.58 1023.79 1023.95 1024.08
1019.75 1019.66 1019.84 1019.41 1019.25 1019.26 1019.26 1019.31 1019.48 1019.48 1019.32 1019.27 1019.34 1019.59 1020.27 1020.26 1019.98 1020.01 1020.03 1019.83 1019.71 1019.53 1019.75 1019.79 1019.93 1020.25 1020.64 1021.17 1021.83 1022.22 1022.37 1022.66 1023.12 1023.42 1023.74 1023.56 1024.12 1023.95 1024.03 1023.99 1023.92 1024.00 1023.91
1019.81 1019.56 1019.44 1019.30 1019.35 1019.48 1019.51 1019.24 1019.23 1019.15 1019.07 1018.96 1018.84 1018.92 1019.63 1019.80 1019.48 1019.43 1019.21 1019.10 1019.16 1019.12 1019.20 1019.32 1019.72 1020.16 1020.36 1021.06 1021.60 1021.67 1022.23 1022.45 1022.96 1023.21 1023.60 1023.67 1023.72 1024.32 1024.27 1023.90 1024.00 1024.06 1024.02
1020.06 1019.96 1019.72 1019.54 1019.38 1019.45 1019.16 1018.98 1018.98 1018.97 1018.92 1018.80 1018.66 1018.69 1018.80 1018.98 1018.83 1018.88 1018.70 1018.58 1018.57 1018.63 1018.96 1019.16 1019.60 1020.05 1020.56 1021.15 1021.49 1021.72 1021.87 1022.27 1022.78 1022.90 1022.98 1023.49 1023.95 1024.00 1024.01 1023.99 1024.24 1024.13 1023.92
1020.10 1019.93 1019.73 1019.46 1019.26 1019.26 1019.00 1018.86 1018.96 1018.95 1019.04 1018.76 1018.57 1018.50 1018.43 1018.41 1018.63 1018.45 1018.65 1018.55 1018.41 1018.39 1018.77 1019.13 1019.42 1019.82 1020.42 1020.91 1021.42 1021.72 1021.88 1022.23 1022.64 1023.16 1023.47 1023.50 1023.74 1024.32 1024.03 1024.10 1024.07 1024.08 1023.92
1020.25 1020.11 1019.97 1019.89 1019.78 1019.61 1019.48 1019.33 1019.23 1019.09 1018.92 1018.74 1018.56 1018.43 1018.20 1018.08 1018.03 1018.24 1018.40 1017.83 1018.46 1018.63 1018.30 1018.72 1019.14 1019.61 1020.28 1020.71 1020.90 1021.31 1022.08 1022.83 1022.90 1023.25 1023.60 1023.54 1023.54 1023.88 1023.89 1023.89 1023.98 1024.00 1024.04
1020.39 1020.29 1020.19 1020.05 1019.90 1019.89 1019.77 1019.67 1019.54 1019.36 1019.18 1019.02 1018.83 1018.56 1018.32 1018.08 1017.90 1017.93 1017.93 1017.76 1017.81 1018.24 1018.40 1018.81 1018.85 1019.36 1019.83 1020.39 1020.84 1021.48 1022.54 1023.11 1023.37 1023.59 1023.31 1023.37 1023.47 1023.66 1023.86 1023.98 1023.98 1023.89 1023.78
Wind_Speed
14 12 11 9 9 7 7 6 5 4 5 6 5 6 8 8 8 7 7 6 7 6 5 6 7 6 5 5 5 5 5 5 7 6 4 4 5 5 5 5 4 4 3
13 13 11 9 9 9 7 5 4 4 3 4 5 6 7 7 7 8 8 8 8 9 9 8 9 6 8 6 6 7 6 5 6 8 5 5 5 5 6 6 5 5 5
12 12 11 11 10 9 8 6 4 4 4 4 4 6 6 7 7 8 8 9 9 10 10 9 9 8 8 7 6 5 6 5 5 6 6 3 5 4 4 4 4 4 4
13 13 13 13 12 11 9 8 5 3 2 4 5 5 5 7 8 7 6 6 7 8 10 10 9 8 9 7 6 5 6 5 5 6 6 5 4 3 3 4 5 3 4
11 13 14 12 10 11 9 7 5 4 3 1 2 3 5 4 3 4 5 6 6 6 7 8 2 7 6 7 3 4 5 5 5 5 5 4 4 4 5 4 5 5 2
11 12 11 9 9 9 5 6 5 4 3 4 3 3 1 2 4 6 5 7 6 6 5 4 6 4 4 5 2 1 6 7 6 3 3 3 3 4 3 5 5 5 2
6 6 8 9 10 7 5 5 6 5 4 5 4 2 0 1 5 8 7 6 5 4 5 5 5 3 3 5 5 5 5 4 3 3 3 2 3 3 4 4 2 3 2
5 5 6 5 4 5 5 7 5 4 5 3 3 2 3 2 7 7 6 5 1 2 2 2 3 2 3 2 4 3 4 6 5 2 4 5 4 5 5 3 2 1 4
7 8 6 7 8 6 6 6 4 5 4 3 3 5 4 2 7 4 3 2 1 3 2 2 4 2 3 4 2 5 5 6 10 12 12 7 8 11 9 4 1 4 3
4 4 4 5 6 5 5 6 4 4 5 5 5 5 5 3 9 6 3 1 3 3 4 5 8 5 5 3 3 4 5 6 6 6 5 6 8 9 13 9 5 4 3
5 6 6 7 4 3 5 3 5 7 7 6 6 4 6 5 7 9 7 2 2 2 1 2 0 6 4 2 3 3 2 5 5 5 3 3 5 6 7 8 8 6 2
4 4 8 8 5 6 6 3 6 9 7 7 5 4 2 4 6 8 8 9 4 2 2 0 1 4 2 4 2 6 8 7 4 4 3 3 3 4 5 7 9 9 9
8 8 7 8 8 7 5 3 3 5 6 5 4 3 3 3 3 4 6 6 7 0 2 3 5 5 8 8 8 6 6 4 5 3 3 4 4 5 3 5 6 7 8
9 6 8 8 9 8 8 5 4 2 2 3 3 3 2 2 2 2 3 3 3 1 3 5 5 7 9 7 5 5 4 4 3 4 4 4 3 3 4 4 3 1 2
8 8 7 6 8 7 4 3 3 2 2 0 1 1 2 2 2 4 2 1 1 3 1 4 3 3 3 3 4 5 3 4 4 4 4 4 3 3 4 4 3 3 3
8 6 6 6 5 4 4 4 7 5 2 6 5 3 3 5 7 6 6 4 1 1 3 4 3 5 5 5 4 5 2 5 4 3 5 2 3 3 3 4 3 4 3
8 7 5 4 4 4 4 3 3 3 3 3 4 5 5 3 5 4 4 2 3 3 6 5 5 5 5 4 4 4 5 4 4 4 3 4 3 3 2 3 3 2 3
6 4 4 4 3 2 1 1 0 1 1 2 3 1 3 4 4 3 3 2 3 4 5 5 6 6 6 5 4 4 5 5 4 4 4 4 3 2 3 3 2 2 2
3 3 3 2 2 1 0 1 2 3 4 4 3 3 5 3 1 2 2 5 5 5 5 6 6 7 6 5 5 4 5 4 3 3 3 3 3 3 3 2 4 4 3
3 3 3 2 1 1 2 2 2 3 3 4 4 4 3 3 5 5 5 5 5 5 4 5 6 6 6 6 6 6 5 5 5 4 4 3 3 2 3 3 2 2 1
3 2 3 3 3 4 4 4 4 4 4 5 5 3 2 6 6 6 6 6 6 5 5 7 8 7 6 6 5 6 6 5 5 4 4 4 3 3 2 2 2 2 1
3 3 3 4 4 3 4 4 4 5 5 5 6 5 6 6 7 7 7 6 5 6 6 7 7 6 6 7 7 7 6 6 6 5 5 4 3 3 3 3 2 2 2
3 3 3 3 4 3 4 4 4 5 5 6 6 6 5 6 7 8 9 8 7 7 7 7 7 6 6 6 6 6 6 6 5 5 5 5 5 5 4 4 3 2 0
4 5 5 5 4 6 5 5 5 4 5 7 7 7 8 8 7 8 9 7 8 8 8 8 7 8 8 8 7 6 5 5 5 5 5 5 5 4 4 4 4 1 2
3 3 4 4 4 5 5 5 6 6 7 7 8 9 9 9 9 9 6 7 8 9 10 9 8 9 11 12 10 10 8 9 6 5 6 5 5 5 4 4 3 4 4
4 5 4 4 4 5 5 5 5 6 6 7 7 7 7 8 8 8 7 8 8 8 8 8 11 12 13 11 12 11 11 11 9 6 5 5 4 4 4 5 5 5 5
Wind_Direction
199 201 207 207 205 205 212 218 226 234 223 213 228 228 218 214 214 220 236 237 231 224 227 227 237 236 246 241 235 241 250 244 271 292 294 316 298 308 323 336 320 305 2
202 196 201 200 203 202 197 186 185 186 206 238 232 241 239 226 224 226 234 237 234 235 235 233 244 238 238 240 244 246 251 249 273 283 316 297 295 321 312 317 332 335 329
200 202 199 200 201 201 183 169 172 197 207 210 243 246 237 240 242 235 231 236 238 238 241 245 252 246 251 248 238 243 247 246 239 267 285 287 308 325 331 321 322 340 313
201 201 207 203 198 193 185 178 171 148 218 228 237 255 244 241 244 241 243 248 250 254 257 245 239 239 249 252 245 244 242 252 237 244 271 281 291 331 297 311 321 347 6
194 204 207 206 192 190 184 182 179 175 218 239 267 266 270 268 273 287 277 272 263 259 265 267 315 62 41 32 347 289 259 261 257 251 258 287 288 286 318 327 304 325 113
214 216 205 194 168 184 176 198 205 202 211 228 231 113 157 294 7 310 280 271 271 273 263 221 140 133 113 61 57 311 293 275 260 263 241 237 259 296 332 328 321 321 299
167 192 201 171 184 174 172 194 213 186 187 210 166 144 264 303 322 287 269 260 251 253 272 214 164 138 148 134 123 109 84 59 338 269 240 270 285 12 312 300 2 309 17
186 180 207 197 197 221 179 211 210 159 187 127 147 155 174 163 327 287 231 234 211 32 31 115 169 209 57 322 194 98 47 18 345 346 75 75 45 333 280 308 3 332 126
171 193 191 203 189 191 188 187 173 138 149 135 122 165 178 70 349 18 206 157 170 80 95 93 138 119 19 340 174 137 130 113 75 70 77 80 72 40 16 284 318 276 216
184 181 179 194 201 199 176 162 137 141 139 118 134 146 107 115 31 36 31 191 137 136 125 87 52 9 316 343 230 175 189 170 159 143 122 87 58 56 42 38 353 321 346
102 102 90 62 51 135 140 128 123 105 116 130 154 131 101 66 54 34 28 152 124 171 140 152 134 349 317 308 304 228 238 142 125 147 122 85 58 62 54 41 38 15 59
85 98 115 99 91 76 47 49 114 117 136 141 152 124 94 82 51 55 48 42 13 270 275 131 323 328 166 159 212 112 124 157 159 152 129 76 69 75 68 63 56 57 60
74 74 61 81 69 56 61 14 111 154 146 160 158 148 144 136 111 76 66 64 63 166 360 56 96 104 119 89 77 102 151 118 122 76 77 71 51 42 89 95 90 89 71
81 76 82 81 76 47 50 345 38 56 124 116 147 156 130 128 114 55 33 15 39 128 138 135 97 79 66 102 123 112 87 88 107 109 103 93 81 64 59 26 34 355 51
89 80 66 72 75 70 66 337 69 45 6 157 85 105 154 190 131 89 71 93 12 51 354 158 160 134 112 111 95 98 95 102 101 107 116 103 98 90 83 64 48 59 62
85 75 81 99 109 120 128 107 59 92 90 67 56 35 111 75 122 118 122 120 140 252 213 207 185 184 182 156 141 116 96 103 87 109 111 100 123 111 107 89 59 57 51
86 88 91 73 73 83 87 74 88 126 94 89 76 78 35 101 156 151 148 144 146 195 242 215 210 195 181 163 171 158 142 118 141 141 115 124 128 106 156 104 104 83 99
85 69 77 82 112 118 102 90 202 202 250 196 181 209 133 133 175 174 170 247 223 216 256 247 221 198 188 179 165 143 138 155 146 139 148 148 146 135 138 121 104 81 77
82 89 87 87 68 27 296 296 312 306 292 289 249 203 184 192 185 159 197 263 270 253 231 229 207 192 177 164 156 152 156 154 152 155 154 159 146 161 138 125 98 35 310
31 27 334 334 330 235 237 263 265 269 278 280 277 272 185 187 224 225 226 242 248 254 234 212 188 177 164 159 161 162 159 169 168 176 174 168 160 178 152 156 160 167 128
37 29 341 283 290 293 297 295 293 294 301 299 289 282 250 247 258 241 238 228 239 234 208 191 176 173 165 165 171 179 181 179 185 183 186 175 180 175 177 159 164 176 160
358 360 353 330 323 287 288 284 283 286 294 293 294 283 171 242 256 254 245 240 234 218 197 186 185 186 177 180 183 186 189 185 182 185 186 180 176 188 193 179 177 185 193
12 346 328 323 324 320 286 297 295 294 290 292 293 292 276 259 257 255 252 242 218 203 196 194 190 185 175 184 188 192 193 190 188 183 176 180 190 189 194 188 192 205 281
4 357 354 344 347 324 321 319 307 290 300 304 303 299 291 280 264 261 254 246 239 208 200 203 201 195 180 186 183 190 185 171 166 175 190 184 186 173 202 203 201 180 280
21 17 11 9 360 357 337 326 324 318 312 309 304 298 291 284 274 259 244 209 236 237 205 203 198 197 192 191 187 187 130 141 185 140 184 187 187 184 213 230 240 250 266
21 21 20 13 11 358 350 339 329 319 311 307 303 304 301 296 287 271 246 234 217 214 211 209 205 204 191 191 195 163 141 165 168 199 186 182 190 205 219 238 239 270 273